Weather History for KLCG - March, 2013

Change the Weather History Date:

Thursday, March 14, 2013

  Actual Average (KOFK) Record (KOFK)
Temperature  
Mean Temperature 45 °F 37 °F  
Max Temperature 59 °F 48 °F 81 °F (1935)
Min Temperature 31 °F 26 °F -2 °F (1897)
Degree Days  
Heating Degree Days 20 28  
Month to date heating degree days 434  
Since 1 July heating degree days 5527  
Cooling Degree Days 0 0  
Month to date cooling degree days 0  
Year to date cooling degree days 0  
Moisture  
Dew Point 35 °F    
Average Humidity 75    
Maximum Humidity 97    
Minimum Humidity 54    
Precipitation  
Precipitation 0.00 in 0.06 in 1.14 in (1913)
Month to date precipitation 0.63  
Year to date precipitation 1.98  
Snow  
Snow 0.00 in 0.20 in - ()
Month to date snowfall 2.4  
Since 1 July snowfall 25.2  
Snow Depth -    
Sea Level Pressure  
Sea Level Pressure 30.08 in    
Wind  
Wind Speed 8 mph (WSW)    
Max Wind Speed 15 mph    
Max Gust Speed 17 mph    
Visibility 10 miles    
Events      
T = Trace of Precipitation, MM = Missing Value Source: NWS Daily Summary

Daily Weather History Graph

Daily Weather History Graph

Search for Another Location

Airport or City:

Trip Planner

Search our weather history database for the weather conditions in past years. The results will help you decide how hot, cold, wet, or windy it might be!

Date:

Astronomy

Mar. 14, 2013 Rise Set
Actual Time 7:41 AM CDT 7:33 PM CDT
Civil Twilight 7:13 AM CDT 8:01 PM CDT
Nautical Twilight 6:40 AM CDT 8:34 PM CDT
Astronomical Twilight 6:07 AM CDT 9:07 PM CDT
Moon 8:51 AM CDT (3/14) 10:55 PM CDT (3/14)
Length of Visible Light 12h 48m
Length of Day
11h 52m
Waxing Crescent, 9% of the Moon is Illuminated
Mar 14
Waxing Crescent
Mar 19
First Quarter
Mar 27
Full
Apr 2
Last Quarter
Apr 10
New

Hourly Weather History & Observations

Time (CDT) Temp. Windchill Dew Point Humidity Pressure Visibility Wind Dir Wind Speed Gust Speed Precip Events Conditions
12:15 AM 32.0 °F 23.0 °F 23.9 °F 72% 30.16 in 10.0 mi South 11.5 mph - N/A   Clear
12:35 AM 32.0 °F 24.8 °F 24.3 °F 73% 30.16 in 10.0 mi South 8.1 mph - N/A   Clear
12:55 AM 32.4 °F 23.5 °F 23.9 °F 71% 30.15 in 10.0 mi South 11.5 mph 17.3 mph N/A   Scattered Clouds
1:15 AM 32.2 °F 23.2 °F 24.6 °F 74% 30.13 in 10.0 mi SSW 11.5 mph - N/A   Scattered Clouds
1:35 AM 32.2 °F 22.3 °F 24.8 °F 74% 30.13 in 10.0 mi South 13.8 mph - N/A   Clear
1:55 AM 32.5 °F 23.7 °F 25.7 °F 76% 30.12 in 10.0 mi South 11.5 mph - N/A   Mostly Cloudy
2:15 AM 32.9 °F 24.1 °F 25.9 °F 75% 30.10 in 10.0 mi South 11.5 mph - N/A   Mostly Cloudy
2:35 AM 32.9 °F 24.1 °F 26.1 °F 76% 30.09 in 10.0 mi South 11.5 mph - N/A   Scattered Clouds
2:55 AM 32.9 °F 25.3 °F 26.1 °F 76% 30.09 in 10.0 mi South 9.2 mph - N/A   Mostly Cloudy
3:15 AM 32.5 °F 27.1 °F 26.2 °F 78% 30.10 in 10.0 mi South 5.8 mph - N/A   Scattered Clouds
3:35 AM 32.0 °F 24.8 °F 26.4 °F 80% 30.09 in 10.0 mi South 8.1 mph - N/A   Clear
3:55 AM 32.0 °F 25.6 °F 26.6 °F 80% 30.07 in 10.0 mi South 6.9 mph - N/A   Scattered Clouds
4:15 AM 32.0 °F 24.8 °F 27.1 °F 82% 30.06 in 10.0 mi South 8.1 mph - N/A   Scattered Clouds
4:35 AM 32.0 °F 27.5 °F 27.3 °F 83% 30.05 in 10.0 mi South 4.6 mph - N/A   Scattered Clouds
4:55 AM 32.2 °F 23.2 °F 27.5 °F 83% 30.04 in 10.0 mi South 11.5 mph - N/A   Scattered Clouds
5:15 AM 32.0 °F 24.8 °F 27.7 °F 84% 30.03 in 10.0 mi South 8.1 mph - N/A   Clear
5:35 AM 32.0 °F 26.4 °F 27.7 °F 84% 30.03 in 10.0 mi South 5.8 mph - N/A   Clear
5:55 AM 32.5 °F 24.2 °F 27.5 °F 82% 30.02 in 10.0 mi South 10.4 mph - N/A   Clear
6:15 AM 32.0 °F 26.4 °F 27.9 °F 85% 30.02 in 10.0 mi South 5.8 mph - N/A   Clear
6:35 AM 32.0 °F 27.5 °F 28.0 °F 85% 30.03 in 10.0 mi SSW 4.6 mph - N/A   Clear
6:55 AM 32.2 °F 28.9 °F 28.4 °F 86% 30.03 in 10.0 mi SW 3.5 mph - N/A   Clear
7:15 AM 32.2 °F - 28.4 °F 86% 30.04 in 10.0 mi Calm Calm - N/A   Clear
7:35 AM 31.5 °F 26.8 °F 28.2 °F 88% 30.03 in 10.0 mi SW 4.6 mph - N/A   Clear
7:55 AM 31.3 °F 27.9 °F 28.4 °F 89% 30.04 in 10.0 mi SW 3.5 mph - N/A   Clear
8:15 AM 32.0 °F 26.4 °F 29.5 °F 90% 30.04 in 10.0 mi SW 5.8 mph - N/A   Clear
8:35 AM 34.0 °F 29.8 °F 30.7 °F 88% 30.04 in 10.0 mi SW 4.6 mph - N/A   Clear
8:55 AM 35.6 °F - 31.6 °F 85% 30.05 in 10.0 mi Calm Calm - N/A   Clear
9:15 AM 41.0 °F 37.1 °F 32.5 °F 72% 30.06 in 10.0 mi WNW 5.8 mph - N/A   Clear
9:35 AM 43.3 °F 38.6 °F 33.3 °F 68% 30.06 in 10.0 mi NW 8.1 mph - N/A   Clear
9:55 AM 44.8 °F 39.4 °F 34.0 °F 66% 30.07 in 10.0 mi NW 10.4 mph 17.3 mph N/A   Clear
10:15 AM 45.9 °F 39.4 °F 34.7 °F 65% 30.08 in 10.0 mi NW 15.0 mph - N/A   Clear
10:35 AM 46.4 °F 40.1 °F 35.4 °F 66% 30.08 in 10.0 mi NW 15.0 mph - N/A   Clear
10:55 AM 47.5 °F - 36.1 °F 65% 30.08 in 10.0 mi NNW 9.2 mph - N/A   Clear
11:15 AM 48.2 °F - 36.9 °F 65% 30.08 in 10.0 mi NW 15.0 mph - N/A   Clear
11:35 AM 49.1 °F - 37.6 °F 64% 30.09 in 10.0 mi NNW 12.7 mph - N/A   Clear
11:55 AM 50.0 °F - 38.3 °F 64% 30.10 in 10.0 mi NNW 11.5 mph - N/A   Clear
12:15 PM 50.9 °F - 38.8 °F 63% 30.12 in 10.0 mi NNW 11.5 mph - N/A   Clear
12:35 PM 51.8 °F - 39.6 °F 63% 30.12 in 10.0 mi NNW 8.1 mph - N/A   Clear
12:55 PM 52.7 °F - 40.5 °F 63% 30.12 in 10.0 mi NNW 9.2 mph - N/A   Clear
1:15 PM 53.8 °F - 40.8 °F 62% 30.12 in 10.0 mi NW 11.5 mph - N/A   Clear
1:35 PM 54.1 °F - 40.8 °F 61% 30.12 in 10.0 mi NW 11.5 mph - N/A   Clear
1:55 PM 55.4 °F - 41.7 °F 60% 30.12 in 10.0 mi NNW 11.5 mph - N/A   Clear
2:15 PM 56.1 °F - 41.9 °F 59% 30.10 in 10.0 mi NNW 11.5 mph - N/A   Clear
2:35 PM 56.5 °F - 42.8 °F 60% 30.10 in 10.0 mi NW 9.2 mph - N/A   Clear
2:55 PM 57.0 °F - 43.2 °F 60% 30.10 in 10.0 mi NNW 9.2 mph - N/A   Clear
3:15 PM 57.6 °F - 42.6 °F 57% 30.09 in 10.0 mi NW 10.4 mph - N/A   Clear
3:35 PM 58.1 °F - 41.7 °F 54% 30.09 in 10.0 mi NNW 9.2 mph - N/A   Clear
3:55 PM 57.4 °F - 42.1 °F 57% 30.09 in 10.0 mi NNW 8.1 mph - N/A   Clear
4:15 PM 58.1 °F - 42.6 °F 56% 30.09 in 10.0 mi NNW 6.9 mph - N/A   Clear
4:35 PM 59.0 °F - 43.3 °F 56% 30.10 in 10.0 mi NNW 9.2 mph - N/A   Clear
4:55 PM 59.2 °F - 43.0 °F 55% 30.10 in 10.0 mi NNW 9.2 mph - N/A   Clear
5:15 PM 59.2 °F - 43.0 °F 55% 30.10 in 10.0 mi NNW 8.1 mph - N/A   Clear
5:35 PM 59.2 °F - 42.8 °F 55% 30.09 in 10.0 mi NW 4.6 mph - N/A   Clear
5:55 PM 59.0 °F - 43.3 °F 56% 30.09 in 10.0 mi North 4.6 mph - N/A   Clear
6:15 PM 58.5 °F - 42.8 °F 56% 30.09 in 10.0 mi North 4.6 mph - N/A   Clear
6:35 PM 57.2 °F - 45.0 °F 64% 30.08 in 10.0 mi NE 4.6 mph - N/A   Clear
6:55 PM 53.6 °F - 45.9 °F 75% 30.08 in 10.0 mi Calm Calm - N/A   Clear
7:15 PM 51.6 °F - 45.7 °F 80% 30.08 in 10.0 mi ESE 3.5 mph - N/A   Clear
7:35 PM 48.6 °F - 44.1 °F 84% 30.08 in 10.0 mi Calm Calm - N/A   Clear
7:55 PM 45.5 °F - 41.0 °F 84% 30.08 in 10.0 mi Calm Calm - N/A   Clear
8:15 PM 43.9 °F - 40.3 °F 87% 30.08 in 10.0 mi Calm Calm - N/A   Clear
8:35 PM 42.8 °F - 39.7 °F 89% 30.08 in 10.0 mi Calm Calm - N/A   Clear
8:55 PM 39.7 °F 37.6 °F 37.2 °F 91% 30.07 in 4.0 mi SW 3.5 mph - N/A   Clear
9:15 PM 40.6 °F 38.6 °F 39.2 °F 95% 30.07 in 10.0 mi SSW 3.5 mph - N/A   Clear
9:35 PM 39.4 °F 36.1 °F 37.8 °F 94% 30.06 in 10.0 mi South 4.6 mph - N/A   Clear
9:55 PM 39.9 °F 36.7 °F 38.5 °F 95% 30.06 in 10.0 mi South 4.6 mph - N/A   Clear
10:15 PM 40.1 °F 36.9 °F 38.7 °F 95% 30.05 in 10.0 mi SSW 4.6 mph - N/A   Clear
10:35 PM 41.0 °F 38.0 °F 39.4 °F 94% 30.05 in 10.0 mi South 4.6 mph - N/A   Clear
10:55 PM 39.4 °F 36.1 °F 38.3 °F 96% 30.04 in 10.0 mi SSW 4.6 mph - N/A   Clear
11:15 PM 38.5 °F 32.7 °F 37.4 °F 96% 30.04 in 10.0 mi SSW 8.1 mph - N/A   Clear
11:35 PM 38.8 °F 34.6 °F 37.6 °F 95% 30.04 in 10.0 mi South 5.8 mph - N/A   Clear
11:55 PM 39.2 °F 35.0 °F 38.5 °F 97% 30.03 in 10.0 mi SSW 5.8 mph - N/A   Clear